This is the latest recevied weather packets stored in our database for station/object N2PUI. If no packets are shown the sender has not sent any weather packets the latest 10 day(s).
| Time | Temp. | Humidity | Pressure | Rain* | Wind** | Luminosity | Snow |
|---|---|---|---|---|---|---|---|
| 1777986729 | 19.44° C | 57% | 1007.6 hPa | 0 mm | - | 428 W/m² | - |
| 1777986427 | 19.44° C | 58% | 1007.8 hPa | 0 mm | - | 415 W/m² | - |
| 1777986125 | 18.89° C | 59% | 1007.7 hPa | 0 mm | - | 372 W/m² | - |
| 1777985821 | 18.33° C | 61% | 1007.5 hPa | 0 mm | - | 362 W/m² | - |
| 1777985519 | 17.78° C | 63% | 1007.8 hPa | 0 mm | - | 373 W/m² | - |
| 1777985215 | 17.78° C | 64% | 1007.9 hPa | 0 mm | - | 176 W/m² | - |
| 1777984912 | 17.22° C | 64% | 1008.1 hPa | 0 mm | - | 158 W/m² | - |
| 1777984608 | 17.22° C | 63% | 1008.1 hPa | 0 mm | - | 134 W/m² | - |
| 1777984304 | 17.22° C | 63% | 1008.2 hPa | 0 mm | - | 97 W/m² | - |
| 1777984000 | 17.22° C | 64% | 1008.2 hPa | 0 mm | - | 75 W/m² | - |
| 1777983698 | 17.22° C | 63% | 1008.1 hPa | 0 mm | - | 80 W/m² | - |
| 1777983388 | 17.22° C | 62% | 1008.3 hPa | 0 mm | - | 88 W/m² | - |
| 1777983080 | 17.22° C | 63% | 1008 hPa | 0 mm | - | 73 W/m² | - |
| 1777982775 | 17.22° C | 63% | 1007.9 hPa | 0 mm | - | 75 W/m² | - |
| 1777982471 | 17.22° C | 62% | 1007.8 hPa | 0 mm | - | 78 W/m² | - |
| 1777982167 | 17.22° C | 62% | 1007.8 hPa | 0 mm | - | 73 W/m² | - |
| 1777981864 | 17.22° C | 63% | 1008 hPa | 0 mm | - | 111 W/m² | - |
| 1777981561 | 16.67° C | 63% | 1008 hPa | 0 mm | - | 109 W/m² | - |
| 1777981257 | 16.67° C | 63% | 1007.9 hPa | 0 mm | - | 63 W/m² | - |
| 1777980954 | 16.67° C | 62% | 1007.9 hPa | 0 mm | - | 32 W/m² | - |
| 1777980650 | 16.67° C | 63% | 1007.8 hPa | 0 mm | - | 22 W/m² | - |
| 1777980346 | 16.67° C | 63% | 1007.9 hPa | 0 mm | - | 23 W/m² | - |
| 1777980044 | 16.67° C | 64% | 1008 hPa | 0 mm | - | 32 W/m² | - |
| 1777979739 | 16.11° C | 64% | 1008 hPa | 0 mm | - | 26 W/m² | - |
| 1777979435 | 16.11° C | 65% | 1008 hPa | 0 mm | - | 29 W/m² | - |
* Rain latest hour (hover to see other rain measurements)
** Current wind speed in m/s (hover to see current wind gust speed)